FW2530 Weather Reports


Display with metric or nautical units.
time (UTC)temp
F
wind
direction
speed
MPH
gust
MPH
rain 1hr
in
rain 24hr
in
rain mn
in
humidity
%
barometer
mb
20260906082007 57 0 0.0 0.0 0.00 0.00 0.00 78 1016.8
20260906081508 57 0 0.0 0.0 0.00 0.00 0.00 78 1016.8
20260906081007 57 0 0.0 0.0 0.00 0.00 0.00 78 1016.8
20260906080528 57 0 0.0 0.0 0.00 0.00 0.00 78 1016.8
20260906080007 57 0 0.0 0.0 0.00 0.00 0.00 78 1016.8
20260906075507 57 0 0.0 0.0 0.00 0.00 0.00 78 1016.6
20260906075008 57 0 0.0 0.0 0.00 0.00 0.00 78 1016.6
20260906074507 57 0 0.0 0.0 0.00 0.00 0.00 78 1016.5
20260906074007 57 0 0.0 0.0 0.00 0.00 0.00 78 1016.6
20260906073040 58 0 0.0 0.0 0.00 0.00 0.00 78 1016.6
20260906072519 58 0 0.0 0.0 0.00 0.00 0.00 78 1016.6
20260906072019 58 0 0.0 0.0 0.00 0.00 0.00 78 1016.5
20260906071540 58 0 0.0 0.0 0.00 0.00 0.00 78 1016.5
20260906071019 58 0 0.0 0.0 0.00 0.00 0.00 78 1016.4
20260906070519 58 0 0.0 0.0 0.00 0.00 0.00 78 1016.5
20260906070019 58 0 0.0 0.0 0.00 0.00 0.00 78 1016.6
20260906065519 58 0 0.0 0.0 0.00 0.00 0.00 78 1016.5
20260906065040 58 0 0.0 0.0 0.00 0.00 0.00 78 1016.5
20260906064519 58 0 0.0 0.0 0.00 0.00 0.00 78 1016.6
20260906064019 58 0 0.0 0.0 0.00 0.00 0.00 79 1016.4
20260906063540 59 0 0.0 0.0 0.00 0.00 0.00 79 1016.4
20260906063019 59 0 0.0 0.0 0.00 0.00 0.00 79 1016.5
20260906062519 59 0 0.0 0.0 0.00 0.00 0.00 79 1016.5
20260906062019 59 0 0.0 0.0 0.00 0.00 0.00 78 1016.4
20260906061540 59 0 0.0 0.0 0.00 0.00 0.00 78 1016.4
20260906061019 59 0 0.0 0.0 0.00 0.00 0.00 78 1016.4
20260906060519 59 360 0.0 0.0 0.00 0.00 0.00 78 1016.5
20260906060019 59 360 0.0 1.0 0.00 0.00 0.00 78 1016.5
20260906055519 59 0 0.0 0.0 0.00 0.00 0.00 78 1016.5
20260906055040 60 0 0.0 0.0 0.00 0.00 0.00 78 1016.5
20260906054519 60 0 0.0 0.0 0.00 0.00 0.00 78 1016.5
20260906054019 60 0 0.0 0.0 0.00 0.00 0.00 78 1016.5
20260906053540 60 0 0.0 0.0 0.00 0.00 0.00 79 1016.5
20260906053019 60 0 0.0 1.0 0.00 0.00 0.00 78 1016.5
20260906052519 60 360 0.0 0.0 0.00 0.00 0.00 78 1016.5
20260906052019 60 360 0.0 1.0 0.00 0.00 0.00 78 1016.5
20260906051540 60 0 0.0 0.0 0.00 0.00 0.00 79 1016.5
20260906051019 60 360 0.0 1.0 0.00 0.00 0.00 79 1016.5
20260906050519 60 360 0.0 1.0 0.00 0.00 0.00 78 1016.4
20260906050019 60 360 0.0 1.0 0.00 0.00 0.00 78 1016.4
20260906045519 60 360 0.0 0.0 0.00 0.00 0.00 78 1016.4
20260906045019 60 360 0.0 1.0 0.00 0.00 0.00 78 1016.4
20260906044519 61 360 0.0 1.0 0.00 0.00 0.00 78 1016.4
20260906044020 61 360 0.0 4.0 0.00 0.00 0.00 78 1016.5
20260906043519 61 0 0.0 0.0 0.00 0.00 0.00 78 1016.5
20260906043019 61 0 0.0 0.0 0.00 0.00 0.00 78 1016.4
20260906042519 61 0 0.0 0.0 0.00 0.00 0.00 78 1016.4
20260906042040 61 360 0.0 0.0 0.00 0.00 0.00 78 1016.4
20260906041519 61 360 0.0 3.0 0.00 0.00 0.00 78 1016.3
20260906041019 61 0 0.0 0.0 0.00 0.00 0.00 78 1016.3
20260906040519 61 360 0.0 0.0 0.00 0.00 0.00 78 1016.2
20260906040019 61 360 0.0 4.0 0.00 0.00 0.00 79 1016.1
20260906035541 61 360 0.0 4.0 0.00 0.00 0.00 79 1016.1
20260906035019 61 360 0.0 4.0 0.00 0.00 0.00 79 1016.1
20260906034519 61 360 0.0 1.0 0.00 0.00 0.00 79 1016.1
20260906034019 61 360 0.0 3.0 0.00 0.00 0.00 79 1016.1
20260906033519 61 360 0.0 3.0 0.00 0.00 0.00 79 1016.0
20260906033040 61 360 0.0 0.0 0.00 0.00 0.00 79 1016.0
20260906032519 61 360 0.0 1.0 0.00 0.00 0.00 79 1016.0
20260906032040 61 0 0.0 0.0 0.00 0.00 0.00 79 1015.8
20260906031519 61 0 0.0 0.0 0.00 0.00 0.00 79 1015.9
20260906031019 62 0 0.0 0.0 0.00 0.00 0.00 79 1016.0
20260906030520 62 0 0.0 0.0 0.00 0.00 0.00 79 1016.1
20260906030019 62 0 0.0 0.0 0.00 0.00 0.00 79 1016.1
20260906025519 62 360 0.0 0.0 0.00 0.00 0.00 79 1016.0
20260906025019 62 360 0.0 1.0 0.00 0.00 0.00 79 1016.0
20260906024519 62 360 0.0 3.0 0.00 0.00 0.00 79 1016.0
20260906024041 62 360 0.0 3.0 0.00 0.00 0.00 79 1016.0
20260906023519 62 360 1.0 4.0 0.00 0.00 0.00 79 1016.1
20260906023019 63 360 1.0 5.0 0.00 0.00 0.00 80 1016.1
20260906022541 63 360 1.0 4.0 0.00 0.00 0.00 80 1016.0
20260906022019 63 360 1.0 4.0 0.00 0.00 0.00 80 1016.0
20260906021519 63 360 1.0 7.0 0.00 0.00 0.00 80 1015.9
20260906021040 63 360 2.0 5.0 0.00 0.00 0.00 81 1015.9
20260906020540 63 360 2.0 4.0 0.00 0.00 0.00 81 1015.8
20260906014540 63 360 0.0 1.0 0.00 0.00 0.00 82 1015.7
20260906011540 65 360 2.0 5.0 0.00 0.00 0.00 81 1015.4
20260906011019 65 360 2.0 7.0 0.00 0.00 0.00 81 1015.4
20260906010519 65 360 2.0 7.0 0.00 0.00 0.00 81 1015.4
20260906010019 65 360 3.0 5.0 0.00 0.00 0.00 81 1015.4
20260906005622 65 360 4.0 12.0 0.00 0.00 0.00 81 1015.4
20260906005019 65 360 3.0 7.0 0.00 0.00 0.00 81 1015.4
20260906004519 65 360 3.0 7.0 0.00 0.00 0.00 80 1015.2
20260906004019 66 360 3.0 12.0 0.00 0.00 0.00 80 1015.3
20260906003519 66 360 4.0 7.0 0.00 0.00 0.00 79 1015.4
20260906003019 66 360 4.0 8.0 0.00 0.00 0.00 79 1015.4
20260906002540 66 360 3.0 7.0 0.00 0.00 0.00 78 1015.3
20260906002019 66 360 3.0 12.0 0.00 0.00 0.00 77 1015.2
20260906001520 67 360 4.0 11.0 0.00 0.00 0.00 75 1015.1
20260906001019 67 360 4.0 7.0 0.00 0.00 0.00 74 1015.1
20260906000540 67 360 4.0 12.0 0.00 0.00 0.00 73 1015.1
20260906000019 68 360 4.0 11.0 0.00 0.00 0.00 72 1015.0
20260905235540 68 360 4.0 8.0 0.00 0.00 0.00 71 1015.0
20260905235040 68 360 4.0 5.0 0.00 0.00 0.00 71 1015.0
20260905234540 68 360 4.0 8.0 0.00 0.00 0.00 70 1015.1
20260905234019 69 360 4.0 8.0 0.00 0.00 0.00 69 1015.2
20260905233519 69 360 5.0 11.0 0.00 0.00 0.00 69 1015.2
20260905233040 69 360 4.0 11.0 0.00 0.00 0.00 69 1015.2
20260905232519 70 360 4.0 11.0 0.00 0.00 0.00 69 1015.2
20260905232040 70 360 4.0 7.0 0.00 0.00 0.00 69 1015.2
20260905231519 70 360 4.0 8.0 0.00 0.00 0.00 69 1015.1
20260905231019 71 360 5.0 13.0 0.00 0.00 0.00 69 1015.2
20260905230519 71 360 4.0 13.0 0.00 0.00 0.00 68 1015.1
20260905230040 71 357 4.0 13.0 0.00 0.00 0.00 68 1015.0
20260905225519 72 358 5.0 12.0 0.00 0.00 0.00 68 1015.0
20260905225019 72 360 5.0 12.0 0.00 0.00 0.00 68 1015.0
20260905224520 73 358 5.0 13.0 0.00 0.00 0.00 68 1014.9
20260905224019 74 348 5.0 11.0 0.00 0.00 0.00 68 1014.9
20260905223519 74 342 5.0 13.0 0.00 0.00 0.00 68 1014.9
20260905223019 75 345 5.0 13.0 0.00 0.00 0.00 67 1015.0
20260905222519 75 349 4.0 13.0 0.00 0.00 0.00 66 1014.9
20260905222019 75 356 3.0 11.0 0.00 0.00 0.00 67 1014.9
20260905221519 75 360 4.0 11.0 0.00 0.00 0.00 66 1014.8
20260905221019 76 360 5.0 12.0 0.00 0.00 0.00 66 1015.0
20260905220519 76 349 5.0 12.0 0.00 0.00 0.00 67 1015.1
20260905220019 76 339 5.0 21.0 0.00 0.00 0.00 67 1015.0
20260905215519 76 347 6.0 13.0 0.00 0.00 0.00 68 1014.9
20260905215019 76 352 6.0 15.0 0.00 0.00 0.00 68 1014.9
20260905214519 77 342 6.0 16.0 0.00 0.00 0.00 68 1015.0
20260905214019 77 335 6.0 15.0 0.00 0.00 0.00 68 1015.0
20260905213540 78 338 5.0 13.0 0.00 0.00 0.00 68 1014.9
20260905213019 78 339 4.0 15.0 0.00 0.00 0.00 68 1014.8
20260905212519 78 338 4.0 11.0 0.00 0.00 0.00 68 1014.8
20260905212019 78 339 5.0 13.0 0.00 0.00 0.00 68 1014.8
20260905211519 79 332 4.0 13.0 0.00 0.00 0.00 68 1014.7
20260905211040 79 334 3.0 11.0 0.00 0.00 0.00 68 1014.8
20260905210519 79 341 4.0 12.0 0.00 0.00 0.00 68 1014.7
20260905210019 79 343 4.0 11.0 0.00 0.00 0.00 68 1014.6
20260905205519 79 345 5.0 12.0 0.00 0.00 0.00 68 1014.4
20260905205019 80 338 5.0 13.0 0.00 0.00 0.00 68 1014.5
20260905204519 80 341 4.0 15.0 0.00 0.00 0.00 68 1014.5
20260905204019 80 346 4.0 11.0 0.00 0.00 0.00 68 1014.5
20260905203540 80 344 3.0 15.0 0.00 0.00 0.00 68 1014.5
20260905203019 80 352 4.0 7.0 0.00 0.00 0.00 68 1014.6
20260905202519 80 355 4.0 13.0 0.00 0.00 0.00 67 1014.6
20260905202019 80 350 3.0 8.0 0.00 0.00 0.00 67 1014.7
20260905201519 80 327 3.0 12.0 0.00 0.00 0.00 67 1014.8
20260905201018 80 325 3.0 13.0 0.00 0.00 0.00 67 1014.6
20260905200518 80 335 2.0 7.0 0.00 0.00 0.00 67 1014.6
20260905200019 80 337 1.0 9.0 0.00 0.00 0.00 66 1014.7
20260905195519 80 343 2.0 7.0 0.00 0.00 0.00 66 1014.7
20260905195019 79 347 2.0 8.0 0.00 0.00 0.00 66 1014.9
20260905194519 79 360 2.0 5.0 0.00 0.00 0.00 66 1014.8
20260905194019 78 42 2.0 11.0 0.00 0.00 0.00 67 1014.8
20260905193518 78 80 2.0 5.0 0.00 0.00 0.00 67 1014.8
20260905193018 78 72 2.0 9.0 0.00 0.00 0.00 66 1014.8
20260905192519 78 59 2.0 9.0 0.00 0.00 0.00 66 1014.9
20260905192019 78 360 1.0 4.0 0.00 0.00 0.00 67 1014.9
20260905191518 77 360 2.0 4.0 0.00 0.00 0.00 66 1015.0
20260905191019 77 360 1.0 8.0 0.00 0.00 0.00 66 1014.9
20260905190540 78 360 1.0 4.0 0.00 0.00 0.00 66 1015.0
20260905190019 78 360 2.0 7.0 0.00 0.00 0.00 66 1015.1
20260905185519 78 360 1.0 5.0 0.00 0.00 0.00 66 1015.0
20260905185018 78 360 1.0 4.0 0.00 0.00 0.00 66 1015.1
20260905184519 77 360 2.0 5.0 0.00 0.00 0.00 66 1015.1
20260905184040 77 360 2.0 12.0 0.00 0.00 0.00 66 1015.1
20260905183518 77 2 2.0 7.0 0.00 0.00 0.00 66 1015.1
20260905183040 78 2 2.0 5.0 0.00 0.00 0.00 64 1015.3
20260905182518 78 35 3.0 7.0 0.00 0.00 0.00 64 1015.3
20260905182019 78 64 3.0 5.0 0.00 0.00 0.00 66 1015.3
20260905181518 78 60 3.0 11.0 0.00 0.00 0.00 63 1015.3
20260905181040 79 59 3.0 8.0 0.00 0.00 0.00 63 1015.3
20260905180519 79 63 2.0 9.0 0.00 0.00 0.00 63 1015.3
20260905180019 80 51 2.0 7.0 0.00 0.00 0.00 40 1015.3
20260905175519 80 55 1.0 5.0 0.00 0.00 0.00 42 1015.3
20260905175019 79 332 2.0 9.0 0.00 0.00 0.00 63 1015.3
20260905174519 79 325 3.0 7.0 0.00 0.00 0.00 62 1015.3
20260905174019 79 110 2.0 8.0 0.00 0.00 0.00 63 1015.3
20260905173540 79 79 2.0 11.0 0.00 0.00 0.00 62 1015.3
20260905173039 79 32 1.0 11.0 0.00 0.00 0.00 63 1015.3
20260905172519 78 6 1.0 5.0 0.00 0.00 0.00 63 1015.3
20260905172018 78 348 1.0 5.0 0.00 0.00 0.00 41 1015.3
20260905171518 78 360 2.0 9.0 0.00 0.00 0.00 62 1015.5
20260905171040 77 60 2.0 5.0 0.00 0.00 0.00 61 1015.4
20260905170519 77 81 3.0 9.0 0.00 0.00 0.00 62 1015.4
20260905170019 77 79 3.0 11.0 0.00 0.00 0.00 66 1015.4
20260905165519 77 69 3.0 11.0 0.00 0.00 0.00 63 1015.5
20260905165040 76 67 3.0 11.0 0.00 0.00 0.00 62 1015.4
20260905164518 76 74 3.0 11.0 0.00 0.00 0.00 63 1015.3
20260905164019 76 43 3.0 12.0 0.00 0.00 0.00 38 1015.4
20260905163519 76 359 2.0 7.0 0.00 0.00 0.00 60 1015.4
20260905163018 76 356 1.0 3.0 0.00 0.00 0.00 61 1015.5
20260905162519 76 30 3.0 7.0 0.00 0.00 0.00 60 1015.4
20260905162040 75 53 4.0 9.0 0.00 0.00 0.00 62 1015.4
20260905161519 75 53 3.0 9.0 0.00 0.00 0.00 60 1015.5
20260905161018 75 59 5.0 12.0 0.00 0.00 0.00 60 1015.5
20260905160518 75 65 5.0 11.0 0.00 0.00 0.00 58 1015.5
20260905160019 75 16 4.0 8.0 0.00 0.00 0.00 59 1015.5
20260905155518 75 17 5.0 8.0 0.00 0.00 0.00 59 1015.5
20260905155019 74 24 5.0 11.0 0.00 0.00 0.00 58 1015.5
20260905154518 74 17 6.0 9.0 0.00 0.00 0.00 59 1015.5
20260905154040 74 14 6.0 12.0 0.00 0.00 0.00 58 1015.6
20260905153519 74 14 5.0 12.0 0.00 0.00 0.00 57 1015.5
20260905153018 74 20 4.0 12.0 0.00 0.00 0.00 55 1015.6
20260905152518 74 16 3.0 11.0 0.00 0.00 0.00 56 1015.5
20260905152019 73 3 5.0 8.0 0.00 0.00 0.00 55 1015.4
20260905151519 73 3 6.0 15.0 0.00 0.00 0.00 55 1015.5
20260905151019 73 1 6.0 15.0 0.00 0.00 0.00 53 1015.4
20260905150539 73 2 6.0 15.0 0.00 0.00 0.00 55 1015.5
20260905150019 73 1 6.0 12.0 0.00 0.00 0.00 33 1015.4
20260905145518 73 360 5.0 13.0 0.00 0.00 0.00 56 1015.4
20260905145019 73 360 4.0 11.0 0.00 0.00 0.00 57 1015.4
20260905144518 73 360 4.0 11.0 0.00 0.00 0.00 59 1015.4
20260905144019 72 360 5.0 16.0 0.00 0.00 0.00 57 1015.3
20260905143519 72 360 5.0 12.0 0.00 0.00 0.00 60 1015.2
20260905143039 71 360 5.0 8.0 0.00 0.00 0.00 60 1015.2
20260905142518 71 360 5.0 13.0 0.00 0.00 0.00 37 1015.2
20260905142018 71 360 4.0 11.0 0.00 0.00 0.00 61 1015.2
20260905141518 70 360 5.0 8.0 0.00 0.00 0.00 63 1015.2
20260905141018 70 360 5.0 12.0 0.00 0.00 0.00 61 1015.2
20260905140518 69 360 5.0 11.0 0.00 0.00 0.00 63 1015.2
20260905140039 69 360 6.0 11.0 0.00 0.00 0.00 63 1015.2
20260905135518 69 360 5.0 8.0 0.00 0.00 0.00 64 1015.3
20260905135019 69 360 6.0 12.0 0.00 0.00 0.00 64 1015.2
20260905134519 69 360 6.0 13.0 0.00 0.00 0.00 62 1015.2
20260905134018 69 360 5.0 12.0 0.00 0.00 0.00 62 1015.2
20260905133539 69 360 5.0 12.0 0.00 0.00 0.00 63 1015.2
20260905133018 69 360 5.0 12.0 0.00 0.00 0.00 64 1015.2
20260905132518 68 360 5.0 11.0 0.00 0.00 0.00 64 1015.2
20260905132018 68 360 5.0 11.0 0.00 0.00 0.00 64 1015.2
20260905131540 68 360 5.0 12.0 0.00 0.00 0.00 66 1015.3
20260905131039 68 360 5.0 8.0 0.00 0.00 0.00 67 1015.2
20260905130518 67 360 5.0 11.0 0.00 0.00 0.00 68 1015.2
20260905130018 67 360 5.0 8.0 0.00 0.00 0.00 69 1015.2
20260905125518 66 360 5.0 11.0 0.00 0.00 0.00 70 1015.3
20260905125018 66 360 5.0 11.0 0.00 0.00 0.00 70 1015.3
20260905124519 66 360 4.0 8.0 0.00 0.00 0.00 71 1015.2
20260905124018 65 360 5.0 8.0 0.00 0.00 0.00 72 1015.2
20260905123539 65 360 5.0 12.0 0.00 0.00 0.00 72 1015.3
20260905123018 65 360 5.0 11.0 0.00 0.00 0.00 73 1015.2
20260905122518 64 360 4.0 11.0 0.00 0.00 0.00 74 1015.1
20260905122018 64 360 3.0 8.0 0.00 0.00 0.00 75 1015.1
20260905121540 64 12 3.0 8.0 0.00 0.00 0.00 75 1015.2
20260905121018 64 74 2.0 5.0 0.00 0.00 0.00 77 1015.2
20260905120518 63 59 2.0 4.0 0.00 0.00 0.00 77 1015.2
20260905120019 63 6 2.0 5.0 0.00 0.00 0.00 78 1015.2
20260905115518 63 1 1.0 4.0 0.00 0.00 0.00 78 1015.3
20260905115040 62 2 1.0 4.0 0.00 0.00 0.00 78 1015.2
20260905114518 62 360 0.0 3.0 0.00 0.00 0.00 78 1015.3
20260905114018 62 0 0.0 0.0 0.00 0.00 0.00 78 1015.2
20260905113518 62 0 0.0 0.0 0.00 0.00 0.00 78 1015.4
20260905113018 61 0 0.0 0.0 0.00 0.00 0.00 78 1015.4
20260905112518 61 0 0.0 0.0 0.00 0.00 0.00 77 1015.3
20260905112018 61 0 0.0 0.0 0.00 0.00 0.00 77 1015.2
20260905111539 61 0 0.0 0.0 0.00 0.00 0.00 77 1015.2
20260905111018 61 0 0.0 0.0 0.00 0.00 0.00 77 1015.2
20260905110518 61 0 0.0 0.0 0.00 0.00 0.00 77 1015.1
20260905110018 61 0 0.0 0.0 0.00 0.00 0.00 77 1015.1
20260905105518 61 0 0.0 0.0 0.00 0.00 0.00 75 1014.9
20260905105039 61 0 0.0 0.0 0.00 0.00 0.00 75 1014.9
20260905104518 61 0 0.0 0.0 0.00 0.00 0.00 75 1014.8
20260905104019 62 0 0.0 0.0 0.00 0.00 0.00 75 1014.8
20260905103518 62 0 0.0 0.0 0.00 0.00 0.00 75 1014.7
20260905103018 62 0 0.0 0.0 0.00 0.00 0.00 75 1014.7
20260905102518 62 0 0.0 0.0 0.00 0.00 0.00 75 1014.6
20260905102039 62 0 0.0 0.0 0.00 0.00 0.00 75 1014.6
20260905101518 62 0 0.0 0.0 0.00 0.00 0.00 75 1014.4
20260905101018 63 0 0.0 0.0 0.00 0.00 0.00 75 1014.5
20260905100518 63 0 0.0 0.0 0.00 0.00 0.00 75 1014.5
20260905100018 63 360 0.0 0.0 0.00 0.00 0.00 75 1014.4
20260905095518 63 1 0.0 1.0 0.00 0.00 0.00 75 1014.4
20260905095018 63 1 1.0 4.0 0.00 0.00 0.00 77 1014.4
20260905094518 63 360 0.0 3.0 0.00 0.00 0.00 77 1014.4
20260905094019 64 0 0.0 0.0 0.00 0.00 0.00 77 1014.4
20260905093518 64 21 0.0 0.0 0.00 0.00 0.00 77 1014.3
20260905093018 64 12 0.0 3.0 0.00 0.00 0.00 77 1014.2
20260905092539 64 5 0.0 3.0 0.00 0.00 0.00 77 1014.2
20260905092018 64 3 0.0 3.0 0.00 0.00 0.00 77 1014.0
20260905091518 64 5 1.0 3.0 0.00 0.00 0.00 77 1014.1
20260905091018 64 6 1.0 5.0 0.00 0.00 0.00 77 1014.2
20260905090518 64 0 0.0 0.0 0.00 0.00 0.00 77 1014.2
20260905090018 64 0 0.0 0.0 0.00 0.00 0.00 77 1014.3
20260905085518 64 0 0.0 0.0 0.00 0.00 0.00 77 1014.5
20260905085018 64 0 0.0 0.0 0.00 0.00 0.00 77 1014.4
20260905084518 64 0 0.0 0.0 0.00 0.00 0.00 77 1014.5
20260905084018 64 0 0.0 0.0 0.00 0.00 0.00 78 1014.6
20260905083518 64 360 0.0 0.0 0.00 0.00 0.00 78 1014.6
20260905083018 64 360 1.0 4.0 0.00 0.00 0.00 78 1014.6
20260905082518 64 360 0.0 1.0 0.00 0.00 0.00 78 1014.6